TimeEDT,TemperatureF,Dew PointF,Humidity,Sea Level PressureIn,VisibilityMPH,Wind Direction,Wind SpeedMPH,Gust SpeedMPH,PrecipitationIn,Events,Conditions,WindDirDegrees,DateUTC
12:54 AM,57.9,51.1,78,30.11,10.0,NE,8.1,-,N/A,,Partly Cloudy,50,2012-09-27 04:54:00
1:54 AM,57.0,48.9,74,30.11,10.0,NE,9.2,-,N/A,,Mostly Cloudy,50,2012-09-27 05:54:00
2:54 AM,55.9,48.0,75,30.11,10.0,NE,6.9,-,N/A,,Mostly Cloudy,50,2012-09-27 06:54:00
3:54 AM,55.0,46.9,74,30.11,10.0,NE,9.2,-,N/A,,Clear,50,2012-09-27 07:54:00
4:54 AM,53.1,46.9,80,30.12,10.0,NNE,4.6,-,N/A,,Clear,20,2012-09-27 08:54:00
5:54 AM,52.0,46.9,83,30.13,10.0,Calm,Calm,-,N/A,,Clear,0,2012-09-27 09:54:00
6:54 AM,51.1,46.9,86,30.14,10.0,North,3.5,-,N/A,,Partly Cloudy,10,2012-09-27 10:54:00
7:47 AM,51.8,46.4,82,30.15,10.0,ENE,5.8,-,N/A,,Mostly Cloudy,60,2012-09-27 11:47:00
7:54 AM,51.1,46.0,83,30.15,10.0,ENE,5.8,-,N/A,,Mostly Cloudy,60,2012-09-27 11:54:00
8:09 AM,51.8,46.4,82,30.15,10.0,NE,3.5,-,N/A,,Mostly Cloudy,40,2012-09-27 12:09:00
8:13 AM,51.8,46.4,82,30.15,10.0,NE,3.5,-,N/A,,Scattered Clouds,40,2012-09-27 12:13:00
8:54 AM,50.0,46.9,89,30.17,10.0,Calm,Calm,-,N/A,,Scattered Clouds,0,2012-09-27 12:54:00
9:09 AM,51.8,48.2,88,30.17,10.0,Calm,Calm,-,N/A,,Mostly Cloudy,0,2012-09-27 13:09:00
9:31 AM,53.6,48.2,82,30.17,10.0,NNE,3.5,-,N/A,,Overcast,30,2012-09-27 13:31:00
9:54 AM,55.0,51.1,86,30.17,9.0,NE,3.5,-,N/A,,Overcast,40,2012-09-27 13:54:00
10:54 AM,57.0,53.1,87,30.18,8.0,Calm,Calm,-,N/A,,Overcast,0,2012-09-27 14:54:00
11:54 AM,60.1,55.9,86,30.17,7.0,Calm,Calm,-,N/A,,Overcast,0,2012-09-27 15:54:00
12:49 PM,60.8,55.4,82,30.15,9.0,Calm,Calm,-,N/A,,Overcast,0,2012-09-27 16:49:00
12:54 PM,62.1,57.0,84,30.16,9.0,Calm,Calm,-,N/A,,Overcast,0,2012-09-27 16:54:00
1:23 PM,62.6,57.2,82,30.16,9.0,Calm,Calm,-,N/A,,Scattered Clouds,0,2012-09-27 17:23:00
1:54 PM,66.9,59.0,76,30.14,10.0,Calm,Calm,-,N/A,,Clear,0,2012-09-27 17:54:00
2:54 PM,70.0,57.9,65,30.12,10.0,Calm,Calm,-,N/A,,Clear,0,2012-09-27 18:54:00
3:54 PM,72.0,57.9,61,30.10,10.0,Calm,Calm,-,N/A,,Mostly Cloudy,0,2012-09-27 19:54:00
5:54 PM,73.0,52.0,48,30.08,10.0,Calm,Calm,-,N/A,,Clear,0,2012-09-27 21:54:00
6:54 PM,71.1,57.0,61,30.09,10.0,Calm,Calm,-,N/A,,Clear,0,2012-09-27 22:54:00
7:54 PM,64.9,48.9,56,30.10,10.0,NNW,9.2,-,N/A,,Clear,340,2012-09-27 23:54:00
8:54 PM,63.0,44.1,50,30.12,10.0,North,10.4,-,N/A,,Clear,350,2012-09-28 00:54:00
9:54 PM,59.0,48.9,69,30.13,10.0,NNE,9.2,-,N/A,,Clear,20,2012-09-28 01:54:00
10:54 PM,55.9,46.0,69,30.14,10.0,NNE,4.6,-,N/A,,Partly Cloudy,30,2012-09-28 02:54:00
11:54 PM,54.0,48.0,80,30.15,10.0,Calm,Calm,-,N/A,,Partly Cloudy,0,2012-09-28 03:54:00